Location: Krakow
(50.0212°N, 19.9423°E)
Time: 14:43:15
(UTC+01:00)

BlueWalker 3 - Visible Passes

Search period start: 13 December 2025 00:00
Search period end: 23 December 2025 00:00
Orbit: 455 x 462 km, 53.2° (Epoch: 12 December)

Date Brightness Start Highest point End Pass type
(mag) Time Alt. Az. Time Alt. Az. Time Alt. Az.
18 Dec 5.0 06:48:18 10° S 06:50:34 16° SE 06:52:50 10° E visible
19 Dec 5.1 06:14:01 10° SSE 06:15:41 13° SE 06:17:22 10° ESE visible
20 Dec 5.4 05:40:28 10° SE 05:40:49 10° SE 05:41:08 10° SE visible
21 Dec 3.2 06:39:14 10° SW 06:42:37 40° SE 06:46:02 10° ENE visible
22 Dec 3.5 06:04:22 10° SSW 06:07:37 33° SE 06:10:54 10° ENE visible
